Regional Weather Roundup
Issued by NWS

Home | Current Version | Previous Version | Graphics & Text | Print | Product List | Glossary On
Versions: 1 2 3 4 5 6 7 8 9 10 11 12 13 14 15 16 17 18 19 20 21 22 23 24 25 26 27 28 29 30 31 32 33 34 35 36 37 38 39 40 41 42 43 44 45 46 47 48 49 50
000
ASUS43 KLSX 242359
RWRMO

WEATHER SUMMARY FOR MISSOURI
NATIONAL WEATHER SERVICE SPRINGFIELD MO
600 PM CST MON NOV 24 2014

NOTE: "FAIR" INDICATES FEW OR NO CLOUDS BELOW 12,000 FEET WITH NO
       SIGNIFICANT WEATHER AND/OR OBSTRUCTIONS TO VISIBILITY.
       CURRENT SKY AND/OR WEATHER CONDITIONS ARE NOT AVAILABLE FOR
       CHILLICOTHE AND FARMINGTON.

MOZ001>031-035>038-043-044-053-054-250100-
...NORTHERN AND WESTERN MISSOURI...

CITY           SKY/WX    TMP DP  RH WIND       PRES   REMARKS
KANSAS CTY INT CLEAR     33  23  66 W7        29.94R WCI  27
6HR MIN TEMP:  33; 6HR MAX TEMP:  39;

KANSAS C DTWN  CLEAR     37  22  54 W5        29.95R
6HR MIN TEMP:  37; 6HR MAX TEMP:  41;

LEE`S SUMMIT   CLEAR     35  22  58 NW9       29.95R WCI  28
6HR MIN TEMP:  35; 6HR MAX TEMP:  38;

ST JOSEPH      CLEAR     29  20  69 W8        29.95R WCI  21
6HR MIN TEMP:  29; 6HR MAX TEMP:  37;

CHILLICOTHE      N/A     33  22  63 W8        29.93R WCI  26
6HR MIN TEMP:  33; 6HR MAX TEMP:  36;

KIRKSVILLE     CLOUDY    32  24  72 W10       29.86R WCI  24
6HR MIN TEMP:  31; 6HR MAX TEMP:  32;


$$
MOZ066>068-077>081-088>096-101>105-250100-
...SOUTHWEST MISSOURI...

CITY           SKY/WX    TMP DP  RH WIND       PRES   REMARKS
SPRINGFIELD    CLEAR     43  26  51 W10       29.93R
6HR MIN TEMP:  43; 6HR MAX TEMP:  49;

JOPLIN         CLEAR     43  25  49 W10       29.98R
6HR MIN TEMP:  43; 6HR MAX TEMP:  50;


$$
MOZ032>034-039>042-045>050-055>058-069>072-250100-
...CENTRAL MISSOURI...

CITY           SKY/WX    TMP DP  RH WIND       PRES   REMARKS
COLUMBIA       CLOUDY    37  26  64 W14       29.90R WCI  28
6HR MIN TEMP:  36; 6HR MAX TEMP:  39;

JEFFERSON CITY CLOUDY    38  27  64 W6        29.93R
6HR MIN TEMP:  38; 6HR MAX TEMP:  42;

ROLLA          PTCLDY    37  27  67 W9        29.88R
6HR MIN TEMP:  37; 6HR MAX TEMP:  42;

SEDALIA        PTCLDY    36  23  59 W8        29.94R WCI  30
6HR MIN TEMP:  36; 6HR MAX TEMP:  41;

WARRENSBURG    CLEAR     32  23  69 SW6       29.95R WCI  26
OSAGE BEACH    MOCLDY    43  25  49 W13       29.91R

$$
MOZ051-052-059>065-250100-
...EAST CENTRAL MISSOURI...

CITY           SKY/WX    TMP DP  RH WIND       PRES   REMARKS
ST LOUIS INTL  MOCLDY    41  27  57 W13       29.88R
6HR MIN TEMP:  40; 6HR MAX TEMP:  41;

SPIRIT OF STL  CLOUDY    39  28  64 W8        29.88R
6HR MIN TEMP:  37; 6HR MAX TEMP:  41;

ST CHARLES     CLOUDY    39  28  64 W14       29.88R
6HR MIN TEMP:  38; 6HR MAX TEMP:  39;


$$
MOZ072>076-082>087-097>100-106>115-250100-
...SOUTH CENTRAL AND SOUTHEAST MISSOURI...

CITY           SKY/WX    TMP DP  RH WIND       PRES   REMARKS
CAPE GIRARDEAU CLOUDY    45  37  73 SW5       29.92R
6HR MIN TEMP:  44; 6HR MAX TEMP:  52;

FARMINGTON     PTCLDY    41  27  56 S6        29.90R
6HR MIN TEMP:  41; 6HR MAX TEMP:  48;

POPLAR BLUFF   PTCLDY    49  27  42 SW3       29.92R
6HR MIN TEMP:  48; 6HR MAX TEMP:  54;

WEST PLAINS    CLEAR     42  27  55 W5        29.93R
6HR MIN TEMP:  41; 6HR MAX TEMP:  51;


$$



USA.gov is the U.S. government's official web portal to all federal, state and local government web resources and services.